{"data":{"norad_id":53274,"epoch":"2026-05-25T03:32:59.163072Z","epoch_age_seconds":56044,"freshness":"FRESH","line1":"1 53274U 22086AJ  26145.14790698 -.00000142  00000+0  91887-5 0  9996","line2":"2 53274  53.2142 200.8868 0001176  83.3427 276.7699 15.08842225212743","mean_motion":15.08842225,"eccentricity":0.0001176,"inclination_deg":53.2142,"raan_deg":200.8868,"arg_perigee_deg":83.3427,"mean_anomaly_deg":276.7699,"bstar":9.1887e-6,"rev_number":21274,"period_min":95.437413941673,"perigee_km":538.92304610363,"apogee_km":540.55012997154,"semimajor_km":6917.8735880376,"source":"CELESTRAK","updated_at":"2026-05-25T13:38:17.366541Z"}}